Simultaneous Nadir Overpasses (SNOs) Predictions

Prediction of SNOs between AQUA and GOES-15 Satellite Orbit:

Table of predicted SNOs for the next 14.0 days since TLE Epoch: 2/5/2022
Index Date Time (AQUA) AQUA Lat,Lon GOES-15 Lat,Lon Distance(km) Time Diff (sec)
1 02/05/2022 22:04:42 0.24,-127.07 -0.00,-128.20 128.26 80
2 02/06/2022 10:25:57 0.87,-132.22 0.00,-128.18 459.55 80
3 02/07/2022 21:52:28 0.86,-124.10 -0.00,-128.17 463.60 80
4 02/08/2022 10:13:43 0.25,-129.25 -0.00,-128.16 124.40 80
5 02/10/2022 10:01:29 -0.39,-126.27 -0.01,-128.12 210.21 80
6 02/10/2022 22:22:52 -0.72,-131.46 0.01,-128.13 379.34 80
7 02/12/2022 22:10:38 -0.06,-128.49 0.01,-128.09 45.30 80
8 02/14/2022 21:58:23 0.56,-125.51 0.02,-128.05 288.48 80
9 02/15/2022 10:19:38 0.53,-130.66 -0.02,-128.03 299.50 80
10 02/17/2022 10:07:23 -0.11,-127.69 -0.02,-127.98 34.16 80
